Location: Bourg-d�Oueil
(42.8588°N, 0.4991°E)
Time: 09:54:55
(UTC+00:00)

Tiangong - Pass Details

Date: 03 December 2022
Orbit: 383 x 386 km, 41.5° (Epoch: 30 January)

Event Time Altitude Azimuth Distance (km) Brightness Sun altitude
Rises 17:20:06 0° 244° (WSW) 2,250 4.0 -10.0°
Reaches altitude 10° 17:22:13 10° 238° (WSW) 1,400 2.2 -10.4°
Enters shadow 17:27:30 16° 96° (E) 1,106 -0.4 -11.3°
Exits shadow 18:03:35 -71° 79° (ENE) 12,452 5.5 -17.6°
